Weather Service Report


022 
ASUS41 KCLE 291810
RWRCLE
OHIO REGIONAL WEATHER ROUNDUP
NATIONAL WEATHER SERVICE WILMINGTON, OH
200 PM EDT FRI MAY 29 2015

NOTE: "FAIR" INDICATES FEW OR NO CLOUDS BELOW 12,000 FEET WITH NO
SIGNIFICANT WEATHER AND/OR OBSTRUCTIONS TO VISIBILITY.

OHZ001>008-015>018-024>027-034-035-043-044-291900-
   NORTHWEST OHIO
  
CITY           SKY/WX    TMP DP  RH WIND       PRES   REMARKS
DEFIANCE       PTSUNNY   81  65  58 S14       30.09F                  
FINDLAY        PTSUNNY   80  67  64 S14G23    30.11F                  
TOLEDO EXPRESS PTSUNNY   80  68  66 S10       30.10F                  
TOLEDO EXEC    PTSUNNY   76  68  76 S8        30.12F                  
LIMA           PTSUNNY   79  66  64 SW14G22   30.12F                  
$$
 
OHZ009>014-019>023-028>033-038-089-291900-
   NORTHEAST OHIO
  
CITY           SKY/WX    TMP DP  RH WIND       PRES   REMARKS
CLE-HOPKINS    CLOUDY    83  66  56 S13G22    30.15F                  
CLE-LAKEFRONT  CLOUDY    83  63  50 S13       30.12S                  
CUY CO. ARPT   CLOUDY    84  66  54 SW16      30.15F                  
LORAIN-ELYRIA  CLOUDY    83  63  50 SW16G24   30.13F                  
ASHTABULA      PTSUNNY   81  64  56 S6        30.17F                  
AKRON-CANTON   CLOUDY    83  64  52 S14       30.16F                  
WOOSTER        PTSUNNY   80  66  62 SW15      30.16F                  
MANSFIELD      PTSUNNY   81  65  58 S16       30.16F                  
YOUNGSTOWN     CLOUDY    83  63  50 S12G18    30.17F                  
$$
 
OHZ042-051>053-060>062-070>072-077>081-291900-
  SOUTHWEST OHIO
  
CITY           SKY/WX    TMP DP  RH WIND       PRES   REMARKS
CINC-COVINGTON PTSUNNY   79  67  66 S14       30.16F                  
CINC-LUNKEN    CLOUDY    80  70  71 S9        30.15F                  
HAMILTON       PTSUNNY   80  67  64 S8        30.15F                  
DAYTON         CLOUDY    81  68  64 S15       30.15F                  
WRIGHT-PAT AFB CLOUDY    80  68  67 S14G21    30.15F                  
DAYTON GENERAL CLOUDY    80  66  62 SW17G24   30.15F                  
WILMINGTON     CLOUDY    80  64  58 SW14      30.16F                  
$$

OHZ036-037-039>041-045>050-054>059-063>069-073>076-082>088-291900-
  CENTRAL AND SOUTHEAST OHIO
  
CITY           SKY/WX    TMP DP  RH WIND       PRES   REMARKS
COLUMBUS       CLOUDY    82  65  56 S13       30.16F                  
OSU AIRPORT    CLOUDY    83  63  50 SW10G22   30.15S                  
BOLTON FIELD   PTSUNNY   81  66  61 S15       30.17S                  
RICKENBACK AFB CLOUDY    80  66  62 SW13      30.16S                  
NEWARK         CLOUDY    81  65  58 S15       30.17S                  
MARION         RAIN      75  65  70 SW10      30.15S                  
LANCASTER      CLOUDY    80  65  59 S10       30.18F                  
ZANESVILLE     PTSUNNY   81  67  62 SW7       30.18F                  
NEW PHILLY     PTSUNNY   84  66  54 SW8       30.17S                  
$$


062 
ASUS41 KCLE 291810
RWRCLE
OHIO REGIONAL WEATHER ROUNDUP
NATIONAL WEATHER SERVICE CLEVELAND, OH
200 PM EDT FRI MAY 29 2015

NOTE: "FAIR" INDICATES FEW OR NO CLOUDS BELOW 12,000 FEET WITH NO
SIGNIFICANT WEATHER AND/OR OBSTRUCTIONS TO VISIBILITY.

OHZ001>008-015>018-024>027-034-035-043-044-291900-
   NORTHWEST OHIO
  
CITY           SKY/WX    TMP DP  RH WIND       PRES   REMARKS
DEFIANCE       PTSUNNY   81  65  58 S14       30.09F                  
FINDLAY        PTSUNNY   80  67  64 S14G23    30.11F                  
TOLEDO EXPRESS PTSUNNY   80  68  66 S10       30.10F                  
TOLEDO EXEC    PTSUNNY   76  68  76 S8        30.12F                  
LIMA           PTSUNNY   79  66  64 SW14G22   30.12F                  
$$

OHZ009>014-019>023-028>033-038-089-291900-
   NORTHEAST OHIO
  
CITY           SKY/WX    TMP DP  RH WIND       PRES   REMARKS
CLE-HOPKINS    CLOUDY    83  66  56 S13G22    30.15F                  
CLE-LAKEFRONT  CLOUDY    83  63  50 S13       30.12S                  
CUY CO. ARPT   CLOUDY    84  66  54 SW16      30.15F                  
LORAIN-ELYRIA  CLOUDY    83  63  50 SW16G24   30.13F                  
ASHTABULA      PTSUNNY   81  64  56 S6        30.17F                  
AKRON-CANTON   CLOUDY    83  64  52 S14       30.16F                  
WOOSTER        PTSUNNY   80  66  62 SW15      30.16F                  
MANSFIELD      PTSUNNY   81  65  58 S16       30.16F                  
YOUNGSTOWN     CLOUDY    83  63  50 S12G18    30.17F                  
$$

OHZ042-051>053-060>062-070>072-077>081-291900-
  SOUTHWEST OHIO
  
CITY           SKY/WX    TMP DP  RH WIND       PRES   REMARKS
CINC-COVINGTON PTSUNNY   79  67  66 S14       30.16F                  
CINC-LUNKEN    CLOUDY    80  70  71 S9        30.15F                  
HAMILTON       PTSUNNY   80  67  64 S8        30.15F                  
DAYTON         CLOUDY    81  68  64 S15       30.15F                  
WRIGHT-PAT AFB CLOUDY    80  68  67 S14G21    30.15F                  
DAYTON GENERAL CLOUDY    80  66  62 SW17G24   30.15F                  
WILMINGTON     CLOUDY    80  64  58 SW14      30.16F                  
$$

OHZ036-037-039>041-045>050-054>059-063>069-073>076-082>088-291900-
  CENTRAL AND SOUTHEAST OHIO
  
CITY           SKY/WX    TMP DP  RH WIND       PRES   REMARKS
COLUMBUS       CLOUDY    82  65  56 S13       30.16F                  
OSU AIRPORT    CLOUDY    83  63  50 SW10G22   30.15S                  
BOLTON FIELD   PTSUNNY   81  66  61 S15       30.17S                  
RICKENBACK AFB CLOUDY    80  66  62 SW13      30.16S                  
NEWARK         PTSUNNY   81  65  58 S15       30.17S                  
MARION         RAIN      75  65  70 SW10      30.15S                  
LANCASTER      CLOUDY    80  65  59 S10       30.18F                  
ZANESVILLE     NOT AVBL                                               
NEW PHILLY     PTSUNNY   84  66  54 SW8       30.17S                  
$$

Return to Home page


Western Regional Climate Center, wrcc@dri.edu